Tracking 29933 objects as of 2-Dec-2024
HD Live streaming from Space Station
objects crossing your sky now

STARLINK-31213

Track STARLINK-31213 now!
10-day predictions
STARLINK-31213 is classified as:


NORAD ID: 58860
Int'l Code: 2024-019H
Perigee: 494.5 km
Apogee: 495.9 km
Inclination: 43.0 °
Period: 94.4 minutes
Semi major axis: 6866 km
RCS: Unknown
Launch date: January 29, 2024
Source: United States (US)
Launch site: AIR FORCE EASTERN TEST RANGE (AFETR)
Your satellite tracking list
Your tracking list is empty




NASA's NSSDC Master Catalog

Two Line Element Set (TLE):
1 58860U 24019H   24337.06953774 -.00001873  00000-0 -61805-4 0  9998
2 58860  42.9956 338.7162 0001027 189.9504 170.1327 15.25902687 48367
Source of the keplerian elements: AFSPC